This is the latest recevied weather packets stored in our database for station/object KS5S. If no packets are shown the sender has not sent any weather packets the latest 1 day(s).
| Time | Temp. | Humidity | Pressure | Rain* | Wind** | Luminosity | Snow |
|---|---|---|---|---|---|---|---|
| 1778004573 | 28.89° C | 71% | 1003.5 hPa | 0 mm | 2.68 m/s, 238° | 698 W/m² | - |
| 1778004269 | 28.89° C | 70% | 1003.3 hPa | 0 mm | 2.68 m/s, 228° | 696 W/m² | - |
| 1778003966 | 29.44° C | 70% | 1003.4 hPa | 0 mm | 1.79 m/s, 232° | 847 W/m² | - |
| 1778003662 | 29.44° C | 71% | 1003.4 hPa | 0 mm | 1.34 m/s, 233° | 831 W/m² | - |
| 1778003358 | 28.89° C | 71% | 1003.5 hPa | 0 mm | 3.13 m/s, 206° | 812 W/m² | - |
| 1778003056 | 28.89° C | 70% | 1003.7 hPa | 0 mm | 3.58 m/s, 219° | 859 W/m² | - |
| 1778002752 | 28.89° C | 71% | 1003.7 hPa | 0 mm | 6.26 m/s, 224° | 1083 W/m² | - |
| 1778002448 | 27.78° C | 73% | 1003.4 hPa | 0 mm | 4.02 m/s, 218° | 771 W/m² | - |
| 1778002145 | 27.78° C | 73% | 1003.5 hPa | 0 mm | 4.47 m/s, 222° | 433 W/m² | - |
| 1778001843 | 27.78° C | 73% | 1003.5 hPa | 0 mm | 3.58 m/s, 197° | 463 W/m² | - |
| 1778001543 | 28.33° C | 73% | 1003.5 hPa | 0 mm | 2.68 m/s, 196° | 471 W/m² | - |
| 1778001240 | 27.78° C | 73% | 1003.4 hPa | 0 mm | 4.92 m/s, 207° | 522 W/m² | - |
| 1778000936 | 28.33° C | 73% | 1003.2 hPa | 0 mm | 6.71 m/s, 231° | 704 W/m² | - |
| 1778000634 | 27.78° C | 74% | 1003.4 hPa | 0 mm | 1.79 m/s, 230° | 718 W/m² | - |
| 1778000328 | 27.78° C | 75% | 1003.2 hPa | 0 mm | 1.79 m/s, 215° | 563 W/m² | - |
| 1778000024 | 27.22° C | 75% | 1003.4 hPa | 0 mm | 1.79 m/s, 215° | 557 W/m² | - |
| 1777999720 | 27.22° C | 76% | 1003.2 hPa | 0 mm | 4.02 m/s, 194° | 530 W/m² | - |
| 1777999417 | 27.22° C | 76% | 1003.3 hPa | 0 mm | 2.24 m/s, 201° | 498 W/m² | - |
| 1777999115 | 27.22° C | 76% | 1003.3 hPa | 0 mm | 1.34 m/s, 215° | 465 W/m² | - |
| 1777998814 | 27.22° C | 76% | 1003.3 hPa | 0 mm | 3.13 m/s, 207° | 507 W/m² | - |
| 1777998512 | 27.22° C | 76% | 1003.2 hPa | 0 mm | 4.02 m/s, 207° | 432 W/m² | - |
| 1777998208 | 27.22° C | 76% | 1003.7 hPa | 0 mm | 3.58 m/s, 189° | 518 W/m² | - |
| 1777997905 | 27.22° C | 77% | 1003.7 hPa | 0 mm | 4.92 m/s, 168° | 542 W/m² | - |
| 1777997602 | 26.67° C | 77% | 1003.7 hPa | 0 mm | 4.92 m/s, 186° | 578 W/m² | - |
| 1777997299 | 26.67° C | 77% | 1003.5 hPa | 0 mm | 2.24 m/s, 219° | 485 W/m² | - |
* Rain latest hour (hover to see other rain measurements)
** Current wind speed in m/s (hover to see current wind gust speed)